Погода в Губкине

Россия / Белгородская область     51°17′01″N   37°32′05″E
темп.,
°C
ветер,
м/с
пор.,
м/с
влажн.,
%
обл.,
%
осадки,
мм/ч
давл.,
гПа
погр.,
м
15 апреля, чт
чт1500:00+13юв3958100 0.0 1014303
03:00+11вюв337098 0.0 101457
06:00+9ююз228428 0.0 101439
09:00+13ююз346811 0.0 1014553
12:00+15ю455051 0.0 10141468
15:00+16ю664278 0.0 10132059
18:00+15ююв575551 0.0 10131393
21:00+11юв377221 0.0 1014165
16 апреля, пт
пт1600:00+10ю2584100 0.5 1014118
03:00+8ююв34875 0.5 101581
06:00+7ю35910 0.0 1015116
09:00+11ююв46621 0.0 1016680
12:00+14ююв575295 0.0 10161780
15:00+13ююв3653100 0.1 10161112
18:00+13ююз3455100 0.0 1016544
21:00+11ююв1165100 0.0 101736
17 апреля, сб
сб1700:00+9ююз227486 0.0 101859
03:00+7ююз228676 0.1 101828
06:00+7зюз118699 0.1 101925
09:00+9зсз1076100 0.1 1019396
12:00+11зсз2365100 0.3 1019956
15:00+10ссз2270100 1.2 1019662
18:00+9ююз228698 1.4 1019146
21:00+9с1185100 1.6 102049
18 апреля, вс
вс1800:00+8всв1291100 1.0 102098
03:00+8ссз2389100 1.3 1019195
06:00+8св3592100 0.2 1020312
09:00+9св4784100 0.3 1021446
12:00+12св675752 0.1 10221458
15:00+13св675936 0.1 10221307
18:00+12всв476270 0.1 1024872
21:00+10вюв257271 0.1 1025146
19 апреля, пн
пн1900:00+7с22840 0.0 102536
03:00+6св37720 0.0 1026167
06:00+5всв37800 0.0 1027165
09:00+10всв58590 0.0 1027693
12:00+13в674613 0.0 10281779
15:00+13в7847100 0.0 10271784
18:00+11в585594 0.0 10271225
21:00+9в71258100 0.0 1028728